Time,TemperatureF,DewpointF,PressureIn,WindDirection,WindDirectionDegrees,WindSpeedMPH,WindSpeedGustMPH,Humidity,HourlyPrecipIn,Conditions,Clouds,dailyrainin,SoftwareType,DateUTC
2013-01-03 00:01:00,64.0,58.4,30.03,WNW,293,0.0,0.0,82,0.00,,,0.00,WUHU216HW,2013-01-03 05:01:00,
2013-01-03 00:02:00,64.0,58.4,30.03,WNW,293,0.0,0.0,82,0.00,,,0.00,WUHU216HW,2013-01-03 05:02:00,
2013-01-03 00:03:00,64.0,58.4,30.03,WNW,293,0.0,0.0,82,0.00,,,0.00,WUHU216HW,2013-01-03 05:03:00,
2013-01-03 00:08:00,64.0,58.4,30.03,WNW,293,0.0,0.0,82,0.00,,,0.00,WUHU216HW,2013-01-03 05:08:00,
2013-01-03 00:13:00,63.8,58.2,30.03,WNW,293,0.0,0.0,82,0.00,,,0.00,WUHU216HW,2013-01-03 05:13:00,
2013-01-03 00:18:00,63.6,58.0,30.03,WNW,293,0.0,0.0,82,0.00,,,0.00,WUHU216HW,2013-01-03 05:18:00,
2013-01-03 00:23:00,63.6,58.0,30.03,WNW,293,0.0,0.0,82,0.00,,,0.00,WUHU216HW,2013-01-03 05:23:00,
2013-01-03 00:28:00,63.6,58.0,30.03,WNW,293,0.0,0.0,82,0.00,,,0.00,WUHU216HW,2013-01-03 05:28:00,
2013-01-03 00:33:00,63.5,57.8,30.03,WNW,293,0.0,0.0,82,0.00,,,0.00,WUHU216HW,2013-01-03 05:33:00,
2013-01-03 00:38:00,63.3,57.3,30.03,WNW,293,0.0,0.0,81,0.00,,,0.00,WUHU216HW,2013-01-03 05:38:00,
2013-01-03 00:43:00,63.1,57.5,30.03,WNW,293,0.0,0.0,82,0.00,,,0.00,WUHU216HW,2013-01-03 05:43:00,
2013-01-03 00:48:00,63.1,57.5,30.03,WNW,293,0.0,0.0,82,0.00,,,0.00,WUHU216HW,2013-01-03 05:48:00,
2013-01-03 00:53:00,63.1,57.5,30.03,WNW,293,0.0,0.0,82,0.00,,,0.00,WUHU216HW,2013-01-03 05:53:00,
2013-01-03 00:58:00,63.3,58.0,30.03,WNW,293,0.0,0.0,83,0.00,,,0.00,WUHU216HW,2013-01-03 05:58:00,
2013-01-03 01:03:00,63.3,58.0,30.03,WNW,293,0.0,0.0,83,0.00,,,0.00,WUHU216HW,2013-01-03 06:03:00,
2013-01-03 01:08:00,63.3,58.3,30.03,WNW,293,0.0,0.0,84,0.00,,,0.00,WUHU216HW,2013-01-03 06:08:00,
2013-01-03 01:13:00,63.5,58.5,30.03,WNW,293,0.0,0.0,84,0.00,,,0.00,WUHU216HW,2013-01-03 06:13:00,
2013-01-03 01:18:00,63.5,58.5,30.03,WNW,293,0.0,0.0,84,0.00,,,0.00,WUHU216HW,2013-01-03 06:18:00,
2013-01-03 01:23:00,63.3,58.0,30.03,WNW,293,0.0,0.0,83,0.00,,,0.00,WUHU216HW,2013-01-03 06:23:00,
2013-01-03 01:28:00,63.3,58.0,30.03,WNW,293,0.0,0.0,83,0.00,,,0.00,WUHU216HW,2013-01-03 06:28:00,
2013-01-03 01:33:00,63.1,58.0,30.02,WNW,293,0.0,0.0,83,0.00,,,0.00,WUHU216HW,2013-01-03 06:33:00,
2013-01-03 01:38:00,63.1,58.2,30.03,WNW,293,0.0,0.0,84,0.00,,,0.00,WUHU216HW,2013-01-03 06:38:00,
2013-01-03 01:43:00,63.3,58.3,30.03,WNW,293,0.0,0.0,84,0.00,,,0.00,WUHU216HW,2013-01-03 06:43:00,
2013-01-03 01:48:00,63.1,58.2,30.03,WNW,293,0.0,0.0,84,0.00,,,0.00,WUHU216HW,2013-01-03 06:48:00,
2013-01-03 01:53:00,62.9,58.0,30.03,WNW,293,0.0,0.0,84,0.00,,,0.00,WUHU216HW,2013-01-03 06:53:00,
2013-01-03 01:58:00,63.1,58.2,30.03,WNW,293,0.0,0.0,84,0.00,,,0.00,WUHU216HW,2013-01-03 06:58:00,
2013-01-03 02:03:00,63.1,58.2,30.02,WNW,293,0.0,0.0,84,0.00,,,0.00,WUHU216HW,2013-01-03 07:03:00,
2013-01-03 02:08:00,63.1,58.2,30.02,WNW,293,0.0,0.0,84,0.00,,,0.00,WUHU216HW,2013-01-03 07:08:00,
2013-01-03 02:13:00,62.9,57.6,30.02,WNW,293,0.0,0.0,83,0.00,,,0.00,WUHU216HW,2013-01-03 07:13:00,
2013-01-03 02:18:00,62.7,57.5,30.02,WNW,293,0.0,0.0,83,0.00,,,0.00,WUHU216HW,2013-01-03 07:18:00,
2013-01-03 02:23:00,62.6,57.3,30.02,WNW,293,0.0,0.0,83,0.00,,,0.00,WUHU216HW,2013-01-03 07:23:00,
2013-01-03 02:28:00,62.4,57.1,30.02,WNW,293,0.0,0.0,83,0.00,,,0.00,WUHU216HW,2013-01-03 07:28:00,
2013-01-03 02:33:00,62.4,57.1,30.02,WNW,293,0.0,0.0,83,0.00,,,0.00,WUHU216HW,2013-01-03 07:33:00,
2013-01-03 02:38:00,62.2,56.9,30.02,WNW,293,0.0,0.0,83,0.00,,,0.00,WUHU216HW,2013-01-03 07:38:00,
2013-01-03 02:43:00,62.2,56.9,30.02,North,0,0.0,0.0,83,0.00,,,0.00,WUHU216HW,2013-01-03 07:43:00,
2013-01-03 02:48:00,62.0,56.4,30.02,WNW,293,0.0,0.0,82,0.00,,,0.00,WUHU216HW,2013-01-03 07:48:00,
2013-01-03 02:53:00,61.8,56.6,30.01,WNW,293,0.0,0.0,83,0.00,,,0.00,WUHU216HW,2013-01-03 07:53:00,
2013-01-03 02:58:00,61.8,56.6,30.02,WNW,293,0.0,0.0,83,0.00,,,0.00,WUHU216HW,2013-01-03 07:58:00,
2013-01-03 03:03:00,61.5,56.3,30.02,WNW,293,0.0,0.0,83,0.00,,,0.00,WUHU216HW,2013-01-03 08:03:00,
2013-01-03 03:08:00,61.5,55.9,30.01,WNW,293,0.0,0.0,82,0.00,,,0.00,WUHU216HW,2013-01-03 08:08:00,
2013-01-03 03:13:00,61.5,56.3,30.01,WNW,293,0.0,0.0,83,0.00,,,0.00,WUHU216HW,2013-01-03 08:13:00,
2013-01-03 03:18:00,61.5,56.3,30.02,WNW,293,0.0,0.0,83,0.00,,,0.00,WUHU216HW,2013-01-03 08:18:00,
2013-01-03 03:23:00,61.5,56.6,30.02,WNW,293,0.0,0.0,84,0.00,,,0.00,WUHU216HW,2013-01-03 08:23:00,
2013-01-03 03:28:00,61.5,56.9,30.02,WNW,293,0.0,0.0,85,0.00,,,0.00,WUHU216HW,2013-01-03 08:28:00,
2013-01-03 03:33:00,61.7,57.1,30.02,WNW,293,0.0,0.0,85,0.00,,,0.00,WUHU216HW,2013-01-03 08:33:00,
2013-01-03 03:38:00,61.8,57.6,30.02,WNW,293,0.0,0.0,86,0.00,,,0.00,WUHU216HW,2013-01-03 08:38:00,
2013-01-03 03:43:00,61.8,57.6,30.01,WNW,293,0.0,0.0,86,0.00,,,0.00,WUHU216HW,2013-01-03 08:43:00,
2013-01-03 03:48:00,61.8,57.9,30.01,WNW,293,0.0,0.0,87,0.00,,,0.00,WUHU216HW,2013-01-03 08:48:00,
2013-01-03 03:53:00,61.8,57.9,30.02,WNW,293,0.0,0.0,87,0.00,,,0.00,WUHU216HW,2013-01-03 08:53:00,
2013-01-03 03:58:00,61.8,57.9,30.02,WNW,293,0.0,0.0,87,0.00,,,0.00,WUHU216HW,2013-01-03 08:58:00,
2013-01-03 04:03:00,61.8,57.9,30.02,WNW,293,0.0,0.0,87,0.00,,,0.00,WUHU216HW,2013-01-03 09:03:00,
2013-01-03 04:08:00,61.8,57.9,30.01,WNW,293,0.0,0.0,87,0.00,,,0.00,WUHU216HW,2013-01-03 09:08:00,
2013-01-03 04:13:00,61.8,57.9,30.01,WNW,293,0.0,0.0,87,0.00,,,0.00,WUHU216HW,2013-01-03 09:13:00,
2013-01-03 04:18:00,62.0,58.1,30.02,WNW,293,0.0,0.0,87,0.00,,,0.00,WUHU216HW,2013-01-03 09:18:00,
2013-01-03 04:23:00,62.2,58.6,30.01,WNW,293,0.0,0.0,88,0.00,,,0.00,WUHU216HW,2013-01-03 09:23:00,
2013-01-03 04:28:00,62.2,58.6,30.01,WNW,293,0.0,0.0,88,0.00,,,0.00,WUHU216HW,2013-01-03 09:28:00,
2013-01-03 04:33:00,62.4,58.8,30.01,WNW,293,0.0,0.0,88,0.00,,,0.00,WUHU216HW,2013-01-03 09:33:00,
2013-01-03 04:38:00,62.4,58.8,30.01,WNW,293,0.0,0.0,88,0.00,,,0.00,WUHU216HW,2013-01-03 09:38:00,
2013-01-03 04:43:00,62.4,58.8,30.01,WNW,293,0.0,0.0,88,0.00,,,0.00,WUHU216HW,2013-01-03 09:43:00,
2013-01-03 04:48:00,62.4,58.8,30.01,WNW,293,0.0,0.0,88,0.00,,,0.00,WUHU216HW,2013-01-03 09:48:00,
2013-01-03 04:53:00,62.4,58.8,30.01,WNW,293,0.0,0.0,88,0.00,,,0.00,WUHU216HW,2013-01-03 09:53:00,
2013-01-03 04:58:00,62.4,58.8,30.01,WNW,293,0.0,0.0,88,0.00,,,0.00,WUHU216HW,2013-01-03 09:58:00,
2013-01-03 05:03:00,62.4,58.8,30.01,WNW,293,0.0,0.0,88,0.00,,,0.00,WUHU216HW,2013-01-03 10:03:00,
2013-01-03 05:08:00,62.4,59.1,30.01,WNW,293,0.0,0.0,89,0.00,,,0.00,WUHU216HW,2013-01-03 10:08:00,
2013-01-03 05:13:00,62.4,59.1,30.01,WNW,293,0.0,0.0,89,0.00,,,0.00,WUHU216HW,2013-01-03 10:13:00,
2013-01-03 05:18:00,62.4,59.1,30.01,WNW,293,0.0,0.0,89,0.00,,,0.00,WUHU216HW,2013-01-03 10:18:00,
2013-01-03 05:23:00,62.4,59.1,30.01,WNW,293,0.0,0.0,89,0.00,,,0.00,WUHU216HW,2013-01-03 10:23:00,
2013-01-03 05:28:00,62.4,58.8,30.01,WNW,293,0.0,0.0,88,0.00,,,0.00,WUHU216HW,2013-01-03 10:28:00,
2013-01-03 05:33:00,62.4,58.8,30.01,WNW,293,0.0,0.0,88,0.00,,,0.00,WUHU216HW,2013-01-03 10:33:00,
2013-01-03 05:38:00,62.4,58.8,30.02,WNW,293,0.0,0.0,88,0.00,,,0.00,WUHU216HW,2013-01-03 10:38:00,
2013-01-03 05:43:00,62.2,58.6,30.02,WNW,293,0.0,0.0,88,0.00,,,0.00,WUHU216HW,2013-01-03 10:43:00,
2013-01-03 05:48:00,62.2,58.6,30.02,WNW,293,0.0,0.0,88,0.00,,,0.00,WUHU216HW,2013-01-03 10:48:00,
2013-01-03 05:53:00,62.2,58.6,30.02,WNW,293,0.0,0.0,88,0.00,,,0.00,WUHU216HW,2013-01-03 10:53:00,
2013-01-03 05:58:00,62.2,58.6,30.02,WNW,293,0.0,0.0,88,0.00,,,0.00,WUHU216HW,2013-01-03 10:58:00,
2013-01-03 06:03:00,62.0,58.4,30.01,WNW,293,0.0,0.0,88,0.00,,,0.00,WUHU216HW,2013-01-03 11:03:00,
2013-01-03 06:08:00,62.0,58.4,30.02,WNW,293,0.0,0.0,88,0.00,,,0.00,WUHU216HW,2013-01-03 11:08:00,
2013-01-03 06:13:00,61.8,58.3,30.02,WNW,293,0.0,0.0,88,0.00,,,0.00,WUHU216HW,2013-01-03 11:13:00,
2013-01-03 06:18:00,61.7,58.1,30.02,WNW,293,0.0,0.0,88,0.00,,,0.00,WUHU216HW,2013-01-03 11:18:00,
2013-01-03 06:23:00,61.5,57.9,30.02,WNW,293,0.0,0.0,88,0.00,,,0.00,WUHU216HW,2013-01-03 11:23:00,
2013-01-03 06:28:00,61.3,57.7,30.02,WNW,293,0.0,0.0,88,0.00,,,0.00,WUHU216HW,2013-01-03 11:28:00,
2013-01-03 06:33:00,61.1,57.2,30.02,WNW,293,0.0,0.0,87,0.00,,,0.00,WUHU216HW,2013-01-03 11:33:00,
2013-01-03 06:38:00,61.1,57.2,30.02,WNW,293,0.0,0.0,87,0.00,,,0.00,WUHU216HW,2013-01-03 11:38:00,
2013-01-03 06:43:00,60.9,57.1,30.03,WNW,293,0.0,0.0,87,0.00,,,0.00,WUHU216HW,2013-01-03 11:43:00,
2013-01-03 06:48:00,60.6,56.7,30.03,WNW,293,0.0,0.0,87,0.00,,,0.00,WUHU216HW,2013-01-03 11:48:00,
2013-01-03 06:53:00,60.6,56.7,30.03,WNW,293,0.0,0.0,87,0.00,,,0.00,WUHU216HW,2013-01-03 11:53:00,
2013-01-03 06:58:00,60.4,56.5,30.03,WNW,293,0.0,0.0,87,0.00,,,0.00,WUHU216HW,2013-01-03 11:58:00,
2013-01-03 07:03:00,60.0,56.2,30.04,WNW,293,0.0,0.0,87,0.00,,,0.00,WUHU216HW,2013-01-03 12:03:00,
2013-01-03 07:08:00,59.9,56.0,30.04,WNW,293,0.0,0.0,87,0.00,,,0.00,WUHU216HW,2013-01-03 12:08:00,
2013-01-03 07:13:00,59.7,55.8,30.04,WNW,293,0.0,0.0,87,0.00,,,0.00,WUHU216HW,2013-01-03 12:13:00,
2013-01-03 07:18:00,59.7,55.8,30.04,WNW,293,0.0,0.0,87,0.00,,,0.00,WUHU216HW,2013-01-03 12:18:00,
2013-01-03 07:23:00,59.7,55.8,30.05,WNW,293,0.0,0.0,87,0.00,,,0.00,WUHU216HW,2013-01-03 12:23:00,
2013-01-03 07:28:00,59.7,55.8,30.05,WNW,293,0.0,0.0,87,0.00,,,0.00,WUHU216HW,2013-01-03 12:28:00,
2013-01-03 07:33:00,59.7,55.8,30.05,WNW,293,0.0,0.0,87,0.00,,,0.00,WUHU216HW,2013-01-03 12:33:00,
2013-01-03 07:38:00,59.9,56.3,30.06,WNW,293,0.0,0.0,88,0.00,,,0.00,WUHU216HW,2013-01-03 12:38:00,
2013-01-03 07:43:00,60.0,56.5,30.06,WNW,293,0.0,0.0,88,0.00,,,0.00,WUHU216HW,2013-01-03 12:43:00,
2013-01-03 07:48:00,60.0,56.5,30.06,WNW,293,0.0,0.0,88,0.00,,,0.00,WUHU216HW,2013-01-03 12:48:00,
2013-01-03 07:53:00,60.4,57.2,30.06,WNW,293,0.0,0.0,89,0.00,,,0.00,WUHU216HW,2013-01-03 12:53:00,
2013-01-03 07:58:00,60.6,57.4,30.06,WNW,293,0.0,0.0,89,0.00,,,0.00,WUHU216HW,2013-01-03 12:58:00,
2013-01-03 08:03:00,60.6,57.4,30.06,WNW,293,0.0,0.0,89,0.00,,,0.00,WUHU216HW,2013-01-03 13:03:00,
2013-01-03 08:08:00,60.9,57.7,30.06,WNW,293,0.0,0.0,89,0.00,,,0.00,WUHU216HW,2013-01-03 13:08:00,
2013-01-03 08:13:00,60.9,57.7,30.06,WNW,293,0.0,0.0,89,0.00,,,0.00,WUHU216HW,2013-01-03 13:13:00,
2013-01-03 08:18:00,61.3,58.1,30.06,WNW,293,0.0,0.0,89,0.00,,,0.00,WUHU216HW,2013-01-03 13:18:00,
2013-01-03 08:23:00,61.5,58.6,30.07,WNW,293,0.0,0.0,90,0.00,,,0.00,WUHU216HW,2013-01-03 13:23:00,
2013-01-03 08:28:00,61.7,58.8,30.07,WNW,293,0.0,0.0,90,0.00,,,0.00,WUHU216HW,2013-01-03 13:28:00,
2013-01-03 08:33:00,61.8,59.0,30.07,WNW,293,0.0,0.0,90,0.00,,,0.00,WUHU216HW,2013-01-03 13:33:00,
2013-01-03 08:38:00,62.2,59.3,30.07,WNW,293,0.0,0.0,90,0.00,,,0.00,WUHU216HW,2013-01-03 13:38:00,
2013-01-03 08:43:00,62.4,59.5,30.07,WNW,293,0.0,0.0,90,0.00,,,0.00,WUHU216HW,2013-01-03 13:43:00,
2013-01-03 08:48:00,62.4,59.5,30.07,WNW,293,0.0,0.0,90,0.00,,,0.00,WUHU216HW,2013-01-03 13:48:00,
2013-01-03 08:53:00,62.7,59.9,30.07,WNW,293,0.0,0.0,90,0.00,,,0.00,WUHU216HW,2013-01-03 13:53:00,
2013-01-03 08:58:00,62.7,59.9,30.08,WNW,293,0.0,0.0,90,0.00,,,0.00,WUHU216HW,2013-01-03 13:58:00,
2013-01-03 09:03:00,62.9,60.0,30.08,WNW,293,0.0,0.0,90,0.00,,,0.00,WUHU216HW,2013-01-03 14:03:00,
2013-01-03 09:08:00,63.1,60.2,30.08,WNW,293,0.0,0.0,90,0.00,,,0.00,WUHU216HW,2013-01-03 14:08:00,
2013-01-03 09:13:00,63.1,60.2,30.08,WNW,293,0.0,0.0,90,0.00,,,0.00,WUHU216HW,2013-01-03 14:13:00,
2013-01-03 09:18:00,63.1,60.2,30.08,WNW,293,0.0,0.0,90,0.00,,,0.00,WUHU216HW,2013-01-03 14:18:00,
2013-01-03 09:23:00,63.3,60.4,30.09,WNW,293,0.0,0.0,90,0.00,,,0.00,WUHU216HW,2013-01-03 14:23:00,
2013-01-03 09:28:00,63.5,60.9,30.09,WNW,293,0.0,0.0,91,0.00,,,0.00,WUHU216HW,2013-01-03 14:28:00,
2013-01-03 09:33:00,63.5,60.9,30.09,WNW,293,0.0,0.0,91,0.00,,,0.00,WUHU216HW,2013-01-03 14:33:00,
2013-01-03 09:38:00,63.8,61.2,30.09,WNW,293,0.0,0.0,91,0.00,,,0.00,WUHU216HW,2013-01-03 14:38:00,
2013-01-03 09:43:00,64.2,61.6,30.09,WNW,293,0.0,0.0,91,0.00,,,0.00,WUHU216HW,2013-01-03 14:43:00,
2013-01-03 09:48:00,64.4,61.9,30.09,WNW,293,0.0,0.0,91,0.00,,,0.00,WUHU216HW,2013-01-03 14:48:00,
2013-01-03 09:53:00,64.7,62.1,30.08,WNW,293,0.0,0.0,91,0.00,,,0.00,WUHU216HW,2013-01-03 14:53:00,
2013-01-03 09:58:00,65.1,62.4,30.08,WNW,293,0.0,0.0,91,0.00,,,0.00,WUHU216HW,2013-01-03 14:58:00,
2013-01-03 10:03:00,65.4,62.7,30.08,WNW,293,0.0,0.0,91,0.00,,,0.00,WUHU216HW,2013-01-03 15:03:00,
2013-01-03 10:08:00,65.8,63.1,30.08,WNW,293,0.0,0.0,91,0.00,,,0.00,WUHU216HW,2013-01-03 15:08:00,
2013-01-03 10:13:00,66.0,63.2,30.08,WNW,293,0.0,0.0,91,0.00,,,0.00,WUHU216HW,2013-01-03 15:13:00,
2013-01-03 10:18:00,66.2,63.4,30.08,WNW,293,1.1,1.1,91,0.00,,,0.00,WUHU216HW,2013-01-03 15:18:00,
2013-01-03 10:23:00,66.5,63.8,30.08,WNW,293,0.0,1.1,91,0.00,,,0.00,WUHU216HW,2013-01-03 15:23:00,
2013-01-03 10:28:00,66.9,63.9,30.08,WNW,293,0.0,0.8,91,0.00,,,0.00,WUHU216HW,2013-01-03 15:28:00,
2013-01-03 10:33:00,67.2,64.3,30.08,WNW,293,0.0,0.8,91,0.00,,,0.00,WUHU216HW,2013-01-03 15:33:00,
2013-01-03 10:38:00,67.2,64.5,30.08,WNW,293,0.0,0.0,91,0.00,,,0.00,WUHU216HW,2013-01-03 15:38:00,
2013-01-03 10:43:00,67.6,64.8,30.08,SSW,203,0.0,1.3,91,0.00,,,0.00,WUHU216HW,2013-01-03 15:43:00,
2013-01-03 10:48:00,67.8,65.0,30.08,South,180,0.0,1.3,91,0.00,,,0.00,WUHU216HW,2013-01-03 15:48:00,
2013-01-03 10:53:00,68.1,65.4,30.08,SE,135,0.0,1.5,91,0.00,,,0.00,WUHU216HW,2013-01-03 15:53:00,
2013-01-03 10:58:00,68.7,65.6,30.07,South,180,0.0,1.5,90,0.00,,,0.00,WUHU216HW,2013-01-03 15:58:00,
2013-01-03 11:03:00,69.4,66.0,30.07,SSW,203,0.0,3.1,89,0.00,,,0.00,WUHU216HW,2013-01-03 16:03:00,
2013-01-03 11:08:00,69.9,66.5,30.07,South,180,1.3,3.1,89,0.00,,,0.00,WUHU216HW,2013-01-03 16:08:00,
2013-01-03 11:13:00,70.3,66.5,30.07,South,180,0.0,6.9,88,0.00,,,0.00,WUHU216HW,2013-01-03 16:13:00,
2013-01-03 11:18:00,70.8,66.7,30.07,South,180,3.3,6.9,87,0.00,,,0.00,WUHU216HW,2013-01-03 16:18:00,
2013-01-03 11:23:00,71.2,66.9,30.07,SSE,158,0.8,6.0,86,0.00,,,0.00,WUHU216HW,2013-01-03 16:23:00,
2013-01-03 11:28:00,71.7,67.0,30.07,SSW,203,1.5,4.0,85,0.00,,,0.00,WUHU216HW,2013-01-03 16:28:00,
2013-01-03 11:33:00,72.1,67.0,30.07,North,0,0.0,6.0,84,0.00,,,0.00,WUHU216HW,2013-01-03 16:33:00,
2013-01-03 11:38:00,72.5,67.0,30.06,SE,135,1.7,6.0,83,0.00,,,0.00,WUHU216HW,2013-01-03 16:38:00,
2013-01-03 11:43:00,73.0,66.9,30.06,South,180,3.5,4.6,81,0.00,,,0.00,WUHU216HW,2013-01-03 16:43:00,
2013-01-03 11:48:00,73.2,66.3,30.05,South,180,2.0,4.6,79,0.00,,,0.00,WUHU216HW,2013-01-03 16:48:00,
2013-01-03 11:53:00,73.5,66.3,30.05,SE,135,0.0,3.5,78,0.00,,,0.00,WUHU216HW,2013-01-03 16:53:00,
2013-01-03 11:58:00,73.9,66.3,30.05,SE,135,0.0,3.5,77,0.00,,,0.00,WUHU216HW,2013-01-03 16:58:00,
2013-01-03 12:03:00,73.9,65.5,30.05,SE,135,1.5,2.2,75,0.00,,,0.00,WUHU216HW,2013-01-03 17:03:00,
2013-01-03 12:08:00,74.1,65.7,30.04,NE,45,0.0,2.2,75,0.00,,,0.00,WUHU216HW,2013-01-03 17:08:00,
2013-01-03 12:13:00,74.3,65.4,30.04,NW,315,0.8,2.9,74,0.00,,,0.00,WUHU216HW,2013-01-03 17:13:00,
2013-01-03 12:18:00,74.4,64.8,30.03,WSW,248,0.6,2.9,72,0.00,,,0.00,WUHU216HW,2013-01-03 17:18:00,
2013-01-03 12:23:00,74.8,65.7,30.03,SSE,158,0.0,1.5,73,0.00,,,0.00,WUHU216HW,2013-01-03 17:23:00,
2013-01-03 12:28:00,75.3,65.7,30.02,SW,225,0.0,2.6,72,0.00,,,0.00,WUHU216HW,2013-01-03 17:28:00,
2013-01-03 12:33:00,75.7,66.0,30.02,SSW,203,4.6,4.6,72,0.00,,,0.00,WUHU216HW,2013-01-03 17:33:00,
2013-01-03 12:38:00,75.9,65.4,30.02,SSW,203,2.9,5.3,70,0.00,,,0.00,WUHU216HW,2013-01-03 17:38:00,
2013-01-03 12:43:00,76.2,65.3,30.02,SSW,203,6.7,6.7,69,0.00,,,0.00,WUHU216HW,2013-01-03 17:43:00,
2013-01-03 12:48:00,76.6,65.7,30.02,SW,225,6.2,6.7,68,0.00,,,0.00,WUHU216HW,2013-01-03 17:48:00,
2013-01-03 12:53:00,76.6,65.7,30.02,SSW,203,0.0,6.2,69,0.00,,,0.00,WUHU216HW,2013-01-03 17:53:00,
2013-01-03 12:58:00,76.8,65.9,30.02,South,180,3.1,5.5,69,0.00,,,0.00,WUHU216HW,2013-01-03 17:58:00,
2013-01-03 13:03:00,77.1,65.8,30.01,WNW,293,2.4,3.1,68,0.00,,,0.00,WUHU216HW,2013-01-03 18:03:00,
2013-01-03 13:08:00,77.0,66.1,30.01,WNW,293,2.4,2.6,69,0.00,,,0.00,WUHU216HW,2013-01-03 18:08:00,
2013-01-03 13:13:00,76.8,65.9,30.01,South,180,0.0,3.3,69,0.00,,,0.00,WUHU216HW,2013-01-03 18:13:00,
2013-01-03 13:18:00,77.1,66.7,30.00,South,180,3.8,3.8,70,0.00,,,0.00,WUHU216HW,2013-01-03 18:18:00,
2013-01-03 13:23:00,77.5,66.1,30.01,SSW,203,3.3,4.0,68,0.00,,,0.00,WUHU216HW,2013-01-03 18:23:00,
2013-01-03 13:28:00,78.0,66.2,30.00,SSW,203,1.3,4.2,67,0.00,,,0.00,WUHU216HW,2013-01-03 18:28:00,
2013-01-03 13:33:00,78.2,66.3,30.00,SSW,203,2.9,4.2,67,0.00,,,0.00,WUHU216HW,2013-01-03 18:33:00,
2013-01-03 13:38:00,78.0,66.2,29.99,South,180,3.5,6.0,67,0.00,,,0.00,WUHU216HW,2013-01-03 18:38:00,
2013-01-03 13:43:00,78.2,66.8,29.99,ENE,68,0.0,6.0,68,0.00,,,0.00,WUHU216HW,2013-01-03 18:43:00,
2013-01-03 13:48:00,78.6,66.7,29.99,SSW,203,1.1,4.6,67,0.00,,,0.00,WUHU216HW,2013-01-03 18:48:00,
2013-01-03 13:53:00,78.6,66.7,29.99,SSW,203,2.9,3.3,67,0.00,,,0.00,WUHU216HW,2013-01-03 18:53:00,
2013-01-03 13:58:00,78.6,66.2,29.99,SSE,158,4.4,6.2,66,0.00,,,0.00,WUHU216HW,2013-01-03 18:58:00,
2013-01-03 14:03:00,79.5,67.1,29.99,SSW,203,2.2,6.2,66,0.00,,,0.00,WUHU216HW,2013-01-03 19:03:00,
2013-01-03 14:08:00,79.3,66.5,29.99,WSW,248,0.8,4.9,65,0.00,,,0.00,WUHU216HW,2013-01-03 19:08:00,
2013-01-03 14:13:00,79.3,66.0,29.99,SSW,203,5.1,5.1,64,0.00,,,0.00,WUHU216HW,2013-01-03 19:13:00,
2013-01-03 14:18:00,79.1,66.3,30.00,SSW,203,1.3,5.1,65,0.00,,,0.00,WUHU216HW,2013-01-03 19:18:00,
2013-01-03 14:51:00,79.3,66.0,29.99,SSW,203,2.9,2.9,64,0.00,,,0.00,WUHU216HW,2013-01-03 19:51:00,
2013-01-03 14:56:00,80.2,66.4,29.99,WSW,248,0.0,3.1,63,0.00,,,0.00,WUHU216HW,2013-01-03 19:56:00,
2013-01-03 15:01:00,80.6,66.3,29.99,SSW,203,1.3,3.1,62,0.00,,,0.00,WUHU216HW,2013-01-03 20:01:00,
2013-01-03 15:06:00,81.1,67.3,29.99,SW,225,3.1,3.1,63,0.00,,,0.00,WUHU216HW,2013-01-03 20:06:00,
2013-01-03 15:11:00,80.9,66.8,29.99,SW,225,0.0,5.1,62,0.00,,,0.00,WUHU216HW,2013-01-03 20:11:00,
2013-01-03 15:16:00,80.9,66.7,29.99,South,180,1.5,5.1,62,0.00,,,0.00,WUHU216HW,2013-01-03 20:16:00,
2013-01-03 15:21:00,81.5,67.0,29.99,SSE,158,1.3,1.7,63,0.00,,,0.00,WUHU216HW,2013-01-03 20:21:00,
2013-01-03 15:26:00,82.5,67.2,29.99,SE,135,2.2,3.8,60,0.00,,,0.00,WUHU216HW,2013-01-03 20:26:00,
2013-01-03 15:31:00,83.8,68.0,29.99,WSW,248,1.3,5.8,59,0.00,,,0.00,WUHU216HW,2013-01-03 20:31:00,
2013-01-03 15:36:00,83.8,67.4,30.00,NW,315,1.5,5.8,58,0.00,,,0.00,WUHU216HW,2013-01-03 20:36:00,
2013-01-03 15:41:00,82.7,66.9,30.00,WSW,248,0.0,5.8,59,0.00,,,0.00,WUHU216HW,2013-01-03 20:41:00,
2013-01-03 15:46:00,82.2,66.9,30.00,SSW,203,1.5,5.8,60,0.00,,,0.00,WUHU216HW,2013-01-03 20:46:00,
2013-01-03 15:51:00,81.6,66.4,30.01,SSW,203,0.0,3.1,60,0.00,,,0.00,WUHU216HW,2013-01-03 20:51:00,
2013-01-03 15:56:00,81.1,66.4,30.01,SSW,203,0.0,3.1,61,0.00,,,0.00,WUHU216HW,2013-01-03 20:56:00,
2013-01-03 16:01:00,80.4,65.7,30.00,SSW,203,0.0,3.5,61,0.00,,,0.00,WUHU216HW,2013-01-03 21:01:00,
2013-01-03 16:06:00,80.2,66.0,30.00,SSW,203,0.0,3.5,62,0.00,,,0.00,WUHU216HW,2013-01-03 21:06:00,
2013-01-03 16:11:00,79.8,66.1,30.01,SSW,203,0.0,0.6,63,0.00,,,0.00,WUHU216HW,2013-01-03 21:11:00,
2013-01-03 16:16:00,79.5,66.2,30.01,SSW,203,0.0,0.0,64,0.00,,,0.00,WUHU216HW,2013-01-03 21:16:00,
2013-01-03 16:21:00,78.9,65.7,30.01,SW,225,0.0,2.4,64,0.00,,,0.00,WUHU216HW,2013-01-03 21:21:00,
2013-01-03 16:26:00,78.6,65.4,30.02,SW,225,0.0,2.4,64,0.00,,,0.00,WUHU216HW,2013-01-03 21:26:00,
2013-01-03 16:31:00,78.6,65.8,30.02,SW,225,2.2,2.2,65,0.00,,,0.00,WUHU216HW,2013-01-03 21:31:00,
2013-01-03 16:36:00,78.6,65.8,30.01,SW,225,0.0,2.2,65,0.00,,,0.00,WUHU216HW,2013-01-03 21:36:00,
2013-01-03 16:41:00,78.9,66.1,30.01,SW,225,0.6,0.6,65,0.00,,,0.00,WUHU216HW,2013-01-03 21:41:00,
2013-01-03 16:46:00,78.9,66.1,30.02,SW,225,0.0,1.5,65,0.00,,,0.00,WUHU216HW,2013-01-03 21:46:00,
2013-01-03 16:51:00,78.9,65.7,30.02,NW,315,0.0,2.6,64,0.00,,,0.00,WUHU216HW,2013-01-03 21:51:00,
2013-01-03 16:56:00,78.6,65.4,30.02,NW,315,0.0,0.4,64,0.00,,,0.00,WUHU216HW,2013-01-03 21:56:00,
2013-01-03 17:01:00,78.6,65.8,30.02,NW,315,0.0,0.0,65,0.00,,,0.00,WUHU216HW,2013-01-03 22:01:00,
2013-01-03 17:06:00,78.0,65.7,30.03,NW,315,0.0,0.0,66,0.00,,,0.00,WUHU216HW,2013-01-03 22:06:00,
2013-01-03 17:11:00,77.9,66.0,30.03,NW,315,0.0,0.0,67,0.00,,,0.00,WUHU216HW,2013-01-03 22:11:00,
2013-01-03 17:16:00,77.5,66.1,30.03,NW,315,0.0,0.0,68,0.00,,,0.00,WUHU216HW,2013-01-03 22:16:00,
2013-01-03 17:21:00,77.1,66.2,30.03,NW,315,0.0,0.0,69,0.00,,,0.00,WUHU216HW,2013-01-03 22:21:00,
2013-01-03 17:26:00,76.8,65.9,30.03,NW,315,0.0,0.0,69,0.00,,,0.00,WUHU216HW,2013-01-03 22:26:00,
2013-01-03 17:31:00,76.6,66.2,30.03,NW,315,0.0,0.0,70,0.00,,,0.00,WUHU216HW,2013-01-03 22:31:00,
2013-01-03 17:36:00,76.2,66.2,30.03,NW,315,0.0,0.0,71,0.00,,,0.00,WUHU216HW,2013-01-03 22:36:00,
2013-01-03 17:41:00,75.9,65.8,30.03,NW,315,0.0,0.0,71,0.00,,,0.00,WUHU216HW,2013-01-03 22:41:00,
2013-01-03 17:46:00,75.7,66.0,30.04,NW,315,0.0,0.0,72,0.00,,,0.00,WUHU216HW,2013-01-03 22:46:00,
2013-01-03 17:51:00,75.5,65.8,30.03,NW,315,0.0,0.0,72,0.00,,,0.00,WUHU216HW,2013-01-03 22:51:00,
2013-01-03 17:56:00,75.3,66.1,30.03,NW,315,0.0,0.0,73,0.00,,,0.00,WUHU216HW,2013-01-03 22:56:00,
2013-01-03 18:01:00,75.0,65.7,30.04,NW,315,0.0,0.0,73,0.00,,,0.00,WUHU216HW,2013-01-03 23:01:00,
2013-01-03 18:06:00,75.0,65.7,30.04,NW,315,0.0,0.0,73,0.00,,,0.00,WUHU216HW,2013-01-03 23:06:00,
2013-01-03 18:11:00,74.8,66.0,30.05,NW,315,1.3,1.3,74,0.00,,,0.00,WUHU216HW,2013-01-03 23:11:00,
2013-01-03 18:16:00,74.6,65.8,30.04,NNE,23,1.1,4.0,74,0.00,,,0.00,WUHU216HW,2013-01-03 23:16:00,
2013-01-03 18:21:00,74.4,65.6,30.05,NNE,23,2.9,4.0,74,0.00,,,0.00,WUHU216HW,2013-01-03 23:21:00,
2013-01-03 18:26:00,74.3,65.4,30.05,NNE,23,0.0,2.9,74,0.00,,,0.00,WUHU216HW,2013-01-03 23:26:00,
2013-01-03 18:31:00,74.1,65.3,30.06,NNE,23,0.6,2.2,74,0.00,,,0.00,WUHU216HW,2013-01-03 23:31:00,
2013-01-03 18:36:00,74.1,65.3,30.06,NNE,23,1.7,2.2,74,0.00,,,0.00,WUHU216HW,2013-01-03 23:36:00,
2013-01-03 18:41:00,73.9,65.1,30.06,NNE,23,0.0,1.7,74,0.00,,,0.00,WUHU216HW,2013-01-03 23:41:00,
2013-01-03 18:46:00,73.7,64.9,30.06,NNE,23,0.0,1.5,74,0.00,,,0.00,WUHU216HW,2013-01-03 23:46:00,
2013-01-03 18:51:00,73.7,64.9,30.07,NNE,23,0.8,2.0,74,0.00,,,0.00,WUHU216HW,2013-01-03 23:51:00,
2013-01-03 18:56:00,73.5,64.8,30.07,NNE,23,0.0,2.0,74,0.00,,,0.00,WUHU216HW,2013-01-03 23:56:00,
2013-01-03 19:01:00,73.5,65.1,30.07,NNE,23,0.0,1.1,75,0.00,,,0.00,WUHU216HW,2013-01-04 00:01:00,
2013-01-03 19:06:00,73.2,65.6,30.08,NNE,23,0.0,0.8,77,0.00,,,0.00,WUHU216HW,2013-01-04 00:06:00,
2013-01-03 19:11:00,72.8,65.2,30.08,NNE,23,0.0,0.8,77,0.00,,,0.00,WUHU216HW,2013-01-04 00:11:00,
2013-01-03 19:16:00,72.5,65.2,30.08,NNE,23,0.0,0.0,78,0.00,,,0.00,WUHU216HW,2013-01-04 00:16:00,
2013-01-03 19:21:00,72.1,65.2,30.08,NNE,23,0.0,0.0,79,0.00,,,0.00,WUHU216HW,2013-01-04 00:21:00,
2013-01-03 19:26:00,72.1,65.2,30.09,NNE,23,0.0,0.6,79,0.00,,,0.00,WUHU216HW,2013-01-04 00:26:00,
2013-01-03 19:31:00,71.7,64.9,30.09,NNE,23,0.6,1.3,79,0.00,,,0.00,WUHU216HW,2013-01-04 00:31:00,
2013-01-03 19:36:00,71.7,64.9,30.09,NNE,23,2.2,2.6,79,0.00,,,0.00,WUHU216HW,2013-01-04 00:36:00,
2013-01-03 19:41:00,71.7,64.9,30.09,NE,45,1.5,6.4,79,0.00,,,0.00,WUHU216HW,2013-01-04 00:41:00,
2013-01-03 19:46:00,71.6,65.1,30.09,NE,45,0.6,6.4,80,0.00,,,0.00,WUHU216HW,2013-01-04 00:46:00,
2013-01-03 19:51:00,71.4,64.9,30.09,NE,45,1.3,4.0,80,0.00,,,0.00,WUHU216HW,2013-01-04 00:51:00,
2013-01-03 19:56:00,71.4,64.9,30.09,NE,45,0.0,2.6,80,0.00,,,0.00,WUHU216HW,2013-01-04 00:56:00,
2013-01-03 20:01:00,71.2,64.7,30.09,NE,45,1.3,2.6,80,0.00,,,0.00,WUHU216HW,2013-01-04 01:01:00,
2013-01-03 20:06:00,71.2,64.7,30.09,NE,45,0.0,2.0,80,0.00,,,0.00,WUHU216HW,2013-01-04 01:06:00,
2013-01-03 20:11:00,71.2,65.1,30.09,NE,45,0.0,2.0,81,0.00,,,0.00,WUHU216HW,2013-01-04 01:11:00,
2013-01-03 20:16:00,71.2,65.1,30.09,NE,45,2.2,3.1,81,0.00,,,0.00,WUHU216HW,2013-01-04 01:16:00,
2013-01-03 20:21:00,70.8,64.7,30.10,ENE,68,4.4,9.3,81,0.00,,,0.00,WUHU216HW,2013-01-04 01:21:00,
2013-01-03 20:26:00,70.8,64.7,30.10,East,90,2.6,9.3,81,0.00,,,0.00,WUHU216HW,2013-01-04 01:26:00,
2013-01-03 20:31:00,70.8,64.7,30.10,NE,45,4.2,5.1,81,0.00,,,0.00,WUHU216HW,2013-01-04 01:31:00,
2013-01-03 20:36:00,70.7,64.5,30.10,ENE,68,0.0,5.3,81,0.00,,,0.00,WUHU216HW,2013-01-04 01:36:00,
2013-01-03 20:41:00,70.5,64.3,30.10,ENE,68,0.0,5.3,81,0.00,,,0.00,WUHU216HW,2013-01-04 01:41:00,
2013-01-03 20:46:00,70.5,64.7,30.11,ENE,68,3.5,4.0,82,0.00,,,0.00,WUHU216HW,2013-01-04 01:46:00,
2013-01-03 20:51:00,70.3,64.5,30.11,ENE,68,3.1,4.2,82,0.00,,,0.00,WUHU216HW,2013-01-04 01:51:00,
2013-01-03 20:56:00,70.1,64.3,30.11,NE,45,3.5,6.2,82,0.00,,,0.00,WUHU216HW,2013-01-04 01:56:00,
2013-01-03 21:01:00,70.1,64.3,30.11,ENE,68,6.9,6.9,82,0.00,,,0.00,WUHU216HW,2013-01-04 02:01:00,
2013-01-03 21:06:00,70.1,64.3,30.11,ENE,68,6.7,6.9,82,0.00,,,0.00,WUHU216HW,2013-01-04 02:06:00,
2013-01-03 21:11:00,69.9,64.1,30.12,NE,45,5.5,6.7,82,0.00,,,0.00,WUHU216HW,2013-01-04 02:11:00,
2013-01-03 21:16:00,69.9,64.1,30.12,NE,45,6.7,7.6,82,0.00,,,0.00,WUHU216HW,2013-01-04 02:16:00,
2013-01-03 21:21:00,69.6,63.8,30.12,NE,45,4.9,11.6,82,0.00,,,0.00,WUHU216HW,2013-01-04 02:21:00,
2013-01-03 21:26:00,69.4,63.6,30.12,NE,45,6.0,11.6,82,0.00,,,0.00,WUHU216HW,2013-01-04 02:26:00,
2013-01-03 21:32:00,69.2,63.5,30.12,NE,45,3.8,8.0,82,0.00,,,0.00,WUHU216HW,2013-01-04 02:32:00,
2013-01-03 21:37:00,69.0,63.3,30.12,ENE,68,7.1,7.1,82,0.00,,,0.00,WUHU216HW,2013-01-04 02:37:00,
2013-01-03 21:42:00,68.9,63.1,30.12,NE,45,0.0,7.6,82,0.00,,,0.00,WUHU216HW,2013-01-04 02:42:00,
2013-01-03 21:47:00,68.7,63.3,30.12,North,0,0.0,7.6,83,0.00,,,0.00,WUHU216HW,2013-01-04 02:47:00,
2013-01-03 21:52:00,68.3,62.9,30.12,NNE,23,3.5,11.1,83,0.00,,,0.00,WUHU216HW,2013-01-04 02:52:00,
2013-01-03 21:57:00,68.1,62.8,30.12,NE,45,3.8,11.1,83,0.00,,,0.00,WUHU216HW,2013-01-04 02:57:00,
2013-01-03 22:02:00,67.8,62.4,30.13,ENE,68,6.7,6.7,83,0.00,,,0.00,WUHU216HW,2013-01-04 03:02:00,
2013-01-03 22:07:00,67.8,62.4,30.13,NE,45,3.5,6.7,83,0.00,,,0.00,WUHU216HW,2013-01-04 03:07:00,
2013-01-03 22:12:00,67.6,62.3,30.13,NE,45,3.3,5.5,83,0.00,,,0.00,WUHU216HW,2013-01-04 03:12:00,
2013-01-03 22:17:00,67.4,62.1,30.13,NE,45,2.6,9.1,83,0.00,,,0.00,WUHU216HW,2013-01-04 03:17:00,
2013-01-03 22:22:00,67.2,61.9,30.12,NE,45,3.8,9.1,83,0.00,,,0.00,WUHU216HW,2013-01-04 03:22:00,
2013-01-03 22:27:00,66.9,61.2,30.12,ENE,68,5.8,6.4,82,0.00,,,0.00,WUHU216HW,2013-01-04 03:27:00,
2013-01-03 22:32:00,66.7,61.0,30.12,NE,45,6.0,6.7,82,0.00,,,0.00,WUHU216HW,2013-01-04 03:32:00,
2013-01-03 22:37:00,66.7,61.0,30.12,ENE,68,2.6,6.7,82,0.00,,,0.00,WUHU216HW,2013-01-04 03:37:00,
2013-01-03 22:42:00,66.5,60.9,30.12,NE,45,5.5,5.5,82,0.00,,,0.00,WUHU216HW,2013-01-04 03:42:00,
2013-01-03 22:47:00,66.3,60.7,30.12,ENE,68,4.9,6.2,82,0.00,,,0.00,WUHU216HW,2013-01-04 03:47:00,
2013-01-03 22:52:00,66.3,60.7,30.12,ENE,68,5.8,6.2,82,0.00,,,0.00,WUHU216HW,2013-01-04 03:52:00,
2013-01-03 22:57:00,66.2,60.5,30.12,ENE,68,3.1,6.9,82,0.00,,,0.00,WUHU216HW,2013-01-04 03:57:00,
2013-01-03 23:02:00,66.0,60.3,30.12,ENE,68,3.5,7.1,82,0.00,,,0.00,WUHU216HW,2013-01-04 04:02:00,
2013-01-03 23:07:00,66.0,60.3,30.12,ENE,68,1.1,7.1,82,0.00,,,0.00,WUHU216HW,2013-01-04 04:07:00,
2013-01-03 23:12:00,65.8,60.1,30.12,ENE,68,0.0,4.2,82,0.00,,,0.00,WUHU216HW,2013-01-04 04:12:00,
2013-01-03 23:17:00,65.8,60.1,30.12,ENE,68,2.6,2.6,82,0.00,,,0.00,WUHU216HW,2013-01-04 04:17:00,
2013-01-03 23:22:00,65.4,59.8,30.12,ENE,68,1.7,3.3,82,0.00,,,0.00,WUHU216HW,2013-01-04 04:22:00,
2013-01-03 23:27:00,65.4,59.8,30.12,ENE,68,2.6,3.3,82,0.00,,,0.00,WUHU216HW,2013-01-04 04:27:00,
2013-01-03 23:32:00,65.3,59.6,30.12,ENE,68,3.1,3.1,82,0.00,,,0.00,WUHU216HW,2013-01-04 04:32:00,
2013-01-03 23:37:00,65.3,59.6,30.12,ENE,68,0.0,3.1,82,0.00,,,0.00,WUHU216HW,2013-01-04 04:37:00,
2013-01-03 23:42:00,65.1,59.8,30.12,ENE,68,0.0,3.1,83,0.00,,,0.00,WUHU216HW,2013-01-04 04:42:00,
2013-01-03 23:47:00,65.1,59.8,30.12,ENE,68,0.0,5.8,83,0.00,,,0.00,WUHU216HW,2013-01-04 04:47:00,
2013-01-03 23:52:00,64.9,59.6,30.12,ENE,68,1.3,5.8,83,0.00,,,0.00,WUHU216HW,2013-01-04 04:52:00,
2013-01-03 23:57:00,64.9,59.6,30.12,ENE,68,2.6,5.5,83,0.00,,,0.00,WUHU216HW,2013-01-04 04:57:00,